Location: Bayshore Village Mobile Home Park
(26.6945°N, 81.8642°W)
Time: 01:27:57
(UTC+00:00)

IRIDIUM 106 - Pass Details

Date: 17 June 2021
Orbit: 776 x 779 km, 86.4° (Epoch: 05 August)

Event Time Altitude Azimuth Distance (km) Brightness Sun altitude
Rises 08:20:15 0° 357° (N) 3,260 8.2 -24.9°
Reaches altitude 10° 08:22:36 10° 356° (N) 2,329 7.3 -24.6°
Maximum altitude 08:27:49 81° 270° (W) 790 4.2 -23.8°
Enters shadow 08:28:49 59° 196° (SSW) 895 4.3 -23.6°
